View from above orbital plane
|
View from above satellite
|
Ground track
|
The orbit data is extracted from the following two-line orbital elements,
1 24954U 97052B 21015.76863395 .00000035 00000-0 18565-4 0 9990
2 24954 82.9219 26.7695 0040752 115.8300 56.9854 13.80013817174100
Epoch (UTC): | 15 January 2021 18:26:49 |
Eccentricity: | 0.0040752 |
inclination: | 82.9219° |
perigee height: | 934 km |
apogee height: | 994 km |
right ascension of ascending node: | 26.7695° |
argument of perigee: | 115.8300° |
revolutions per day: | 13.80013817 |
mean anomaly at epoch: | 56.9854° |
orbit number at epoch: | 17410 |
The dashed part of the orbit path shows where the satellite is in the earth's shadow,
|
|